Tracking 26492 objects as of 8-Dec-2022
HD Live streaming from Space Station
objects crossing your sky now

STARLINK-4576

Track STARLINK-4576 now!
10-day predictions
STARLINK-4576 is classified as:


NORAD ID: 53566
Int'l Code: 2022-101AR
Perigee: 546.0 km
Apogee: 547.8 km
Inclination: 53.2 °
Period: 95.4 minutes
Semi major axis: 6917 km
RCS: Unknown
Launch date: August 19, 2022
Source: United States (US)
Launch site: AIR FORCE EASTERN TEST RANGE (AFETR)
aabbcc
Your satellite tracking list
Your tracking list is empty




NASA's NSSDC Master Catalog

Two Line Element Set (TLE):
1 53566U 22101AR  22342.06009010 -.00000124  00000-0  10278-4 0  9990
2 53566  53.2158 345.5756 0001241  62.9613 297.1506 15.08833941 17157
Source of the keplerian elements: AFSPC